Regional Weather Roundup
Issued by NWS Midland/Odessa, TX

Skip options and go directly to product.
Home | Oldest Version | Previous Version | Current Version | All | Text Only | Save Text | Print | Product List | Glossary Off

Skip product version selection by date and time.   

411
ASUS44 KMAF 012210
RWRMAF
MIDLAND AREA WEATHER ROUNDUP
NATIONAL WEATHER SERVICE MIDLAND TX
500 PM CDT FRI AUG 01 2014

...IN SOUTHWEST TEXAS AND SOUTHEAST NEW MEXICO...

CITY           SKY/WX    TMP DP  RH WIND       PRES   REMARKS
ALPINE         MOSUNNY   80  58  46 NE10      30.23S
ANDREWS        FAIR      80  56  43 E7        30.13S
ARTESIA        PTSUNNY   72  63  73 S3        30.18S
BIG SPRING     PTSUNNY   87  50  27 NE8       30.10F
CARLSBAD       CLOUDY    73  65  75 NW7       30.15F
DRYDEN           N/A     91  58  32 E10       30.04F
FORT STOCKTON  MOSUNNY   79  61  53 E10       30.12F
GUAD PASS      CLOUDY    67  60  78 NE21      30.25F
HOBBS          MOSUNNY   81  55  41 N9        30.16F
MARFA          CLOUDY    79  57  47 CALM      30.21S
MIDLAND AIRPK  CLOUDY    82  56  40 NE8       30.10F
MIDLAND INTL   LGT RAIN  81  60  48 NE8       30.10F
ODESSA         PTSUNNY   83  58  42 E14G20    30.12F
PECOS          MOSUNNY   86  55  34 E8G17     30.09F
PRESIDIO       FAIR      86  60  41 SE3       30.06S
SEMINOLE       CLOUDY    84  52  33 NE12      30.14S
SNYDER         SUNNY     85  55  36 E10       30.09F
WINK           MOSUNNY   86  58  38 E10G17    30.09F
$$
...OTHER STATIONS IN TEXAS...

CITY           SKY/WX    TMP DP  RH WIND       PRES   REMARKS
ABILENE        MOSUNNY   89  58  34 N6        30.05F
AMARILLO       MOSUNNY   84  48  28 E15G21    30.16F
AUSTIN         MOSUNNY   90  65  43 N13G22    29.96F
BROWNSVILLE    MOSUNNY   93  74  53 SE15G23   29.89F HX 103
CORPUS CHRISTI PTSUNNY   94  73  50 E13G20    29.89F HX 103
DALLAS FTW     PTSUNNY   80  65  59 NE8       30.03F
DEL RIO        MOSUNNY   94  66  39 VRB5      29.94F
EL PASO        LGT RAIN  70  65  84 SE7       30.14S
HOUSTON INT    PTSUNNY   86  69  56 N12       29.94F
LUBBOCK        CLOUDY    80  50  34 NE7       30.15F
SAN ANGELO     MOSUNNY   88  56  33 NE13      30.03F
SAN ANTONIO    PTSUNNY   92  66  42 VRB3      29.96F
WACO           CLOUDY    82  65  56 N13       30.00F
WICHITA FALLS  NOT AVBL
$$
...OTHER LOCATIONS IN NEW MEXICO...

CITY           SKY/WX    TMP DP  RH WIND       PRES   REMARKS
ALAMAGORDO     PTSUNNY   73  63  68 S8        30.16S
ALBUQUERQUE    MOSUNNY   79  56  45 E14G23    30.21F
CANNON AFB     MOSUNNY   76  55  48 E6        30.20F
CLOVIS         NOT AVBL
HOLLOMAN AFB   PTSUNNY   77  64  65 S7        30.13F
ROSWELL        PTSUNNY   77  63  61 SW6       30.16F
RUIDOSO        CLOUDY    63  57  82 SE9       30.35F
SANTA FE       CLOUDY    70  53  54 E14       30.28F
TRUTH OR CONSE MOSUNNY   80  57  45 E7        30.15F
TUCUMCARI      PTSUNNY   81  52  36 E8        30.18F
$$

USA.gov is the U.S. government's official web portal to all federal, state and local government web resources and services.